| time (UTC) | temp F | wind direction | speed MPH | gust MPH | rain 1hr in | rain 24hr in | rain mn in | humidity % | barometer mb |
| 20260503021500 | 54 | 308 | 0.0 | 0.0 | 0.00 | 0.04 | 0.04 | 63 | 1021.4 |
| 20260503020957 | 54 | 308 | 0.0 | 0.0 | 0.00 | 0.04 | 0.04 | 60 | 1021.2 |
| 20260503020455 | 55 | 308 | 0.0 | 0.0 | 0.00 | 0.04 | 0.04 | 60 | 1021.2 |
| 20260503015951 | 55 | 308 | 0.0 | 0.0 | 0.00 | 0.04 | 0.04 | 59 | 1020.9 |
| 20260503015448 | 55 | 308 | 0.0 | 0.0 | 0.00 | 0.04 | 0.04 | 59 | 1021.0 |
| 20260503014944 | 55 | 308 | 0.0 | 0.0 | 0.00 | 0.04 | 0.04 | 60 | 1020.9 |
| 20260503014441 | 55 | 308 | 0.0 | 0.0 | 0.00 | 0.04 | 0.04 | 59 | 1020.9 |
| 20260503013939 | 56 | 308 | 0.0 | 0.0 | 0.00 | 0.04 | 0.04 | 58 | 1021.1 |
| 20260503013436 | 56 | 308 | 0.0 | 0.0 | 0.00 | 0.04 | 0.04 | 58 | 1020.6 |
| 20260503012933 | 56 | 308 | 0.0 | 0.0 | 0.00 | 0.04 | 0.04 | 57 | 1020.7 |
| 20260503012432 | 56 | 308 | 0.0 | 0.0 | 0.00 | 0.04 | 0.04 | 55 | 1020.6 |
| 20260503011927 | 57 | 308 | 0.0 | 0.0 | 0.00 | 0.04 | 0.04 | 54 | 1020.4 |
| 20260503011424 | 57 | 308 | 0.0 | 0.0 | 0.00 | 0.04 | 0.04 | 53 | 1020.3 |
| 20260503010921 | 58 | 308 | 0.0 | 0.0 | 0.00 | 0.04 | 0.04 | 52 | 1020.3 |
| 20260503010418 | 58 | 308 | 0.0 | 0.0 | 0.00 | 0.04 | 0.04 | 52 | 1020.1 |
| 20260503005915 | 59 | 308 | 0.0 | 0.0 | 0.00 | 0.04 | 0.04 | 51 | 1020.3 |
| 20260503005413 | 59 | 308 | 0.0 | 0.0 | 0.00 | 0.04 | 0.04 | 50 | 1020.4 |
| 20260503004909 | 60 | 308 | 0.0 | 0.0 | 0.00 | 0.04 | 0.04 | 49 | 1020.2 |
| 20260503004406 | 60 | 308 | 0.0 | 0.0 | 0.00 | 0.04 | 0.04 | 47 | 1020.0 |
| 20260503003904 | 61 | 308 | 0.0 | 0.0 | 0.00 | 0.04 | 0.04 | 47 | 1020.0 |
| 20260503003400 | 61 | 308 | 0.0 | 0.0 | 0.00 | 0.04 | 0.04 | 47 | 1019.9 |
| 20260503002857 | 61 | 308 | 0.0 | 0.0 | 0.00 | 0.04 | 0.04 | 45 | 1019.7 |
| 20260503002355 | 62 | 308 | 0.0 | 0.0 | 0.00 | 0.04 | 0.04 | 44 | 1019.9 |
| 20260503001850 | 62 | 308 | 0.0 | 0.0 | 0.00 | 0.04 | 0.04 | 43 | 1019.8 |
| 20260503001347 | 62 | 309 | 0.0 | 0.0 | 0.00 | 0.04 | 0.04 | 42 | 1019.6 |
| 20260503000845 | 62 | 315 | 0.0 | 0.0 | 0.00 | 0.04 | 0.04 | 42 | 1019.5 |
| 20260503000342 | 63 | 315 | 0.0 | 0.0 | 0.00 | 0.04 | 0.04 | 41 | 1019.5 |
| 20260502235839 | 63 | 314 | 0.0 | 0.0 | 0.00 | 0.04 | 0.04 | 40 | 1019.3 |
| 20260502235336 | 63 | 315 | 0.0 | 0.0 | 0.00 | 0.04 | 0.04 | 40 | 1019.0 |
| 20260502234833 | 63 | 315 | 0.0 | 0.0 | 0.00 | 0.04 | 0.04 | 40 | 1018.9 |
| 20260502234329 | 63 | 315 | 0.0 | 0.0 | 0.00 | 0.04 | 0.04 | 39 | 1018.7 |
| 20260502233826 | 63 | 315 | 0.0 | 0.0 | 0.00 | 0.04 | 0.04 | 39 | 1019.0 |
| 20260502233323 | 63 | 315 | 0.0 | 0.0 | 0.00 | 0.04 | 0.04 | 39 | 1018.8 |
| 20260502232820 | 64 | 315 | 0.0 | 0.0 | 0.00 | 0.04 | 0.04 | 39 | 1018.7 |
| 20260502232316 | 64 | 315 | 0.0 | 0.0 | 0.00 | 0.04 | 0.04 | 38 | 1018.6 |
| 20260502231812 | 64 | 315 | 0.0 | 0.0 | 0.00 | 0.04 | 0.04 | 38 | 1018.7 |
| 20260502231310 | 64 | 330 | 0.0 | 0.0 | 0.00 | 0.04 | 0.04 | 36 | 1018.3 |
| 20260502230808 | 64 | 312 | 0.0 | 0.0 | 0.00 | 0.04 | 0.04 | 36 | 1018.6 |
| 20260502230306 | 64 | 315 | 0.0 | 0.0 | 0.00 | 0.04 | 0.04 | 36 | 1018.5 |
| 20260502225803 | 64 | 319 | 0.0 | 0.0 | 0.00 | 0.04 | 0.04 | 37 | 1018.5 |
| 20260502225259 | 64 | 308 | 0.0 | 0.0 | 0.00 | 0.04 | 0.04 | 34 | 1018.6 |
| 20260502224755 | 65 | 315 | 0.0 | 0.0 | 0.00 | 0.04 | 0.04 | 33 | 1018.5 |
| 20260502224252 | 65 | 312 | 0.0 | 0.0 | 0.00 | 0.04 | 0.04 | 32 | 1018.4 |
| 20260502223750 | 65 | 308 | 0.0 | 0.0 | 0.00 | 0.04 | 0.04 | 33 | 1018.4 |
| 20260502223248 | 65 | 318 | 0.0 | 0.0 | 0.00 | 0.04 | 0.04 | 35 | 1018.3 |
| 20260502222745 | 66 | 322 | 0.0 | 0.0 | 0.00 | 0.04 | 0.04 | 34 | 1018.4 |
| 20260502222242 | 66 | 317 | 0.0 | 0.0 | 0.00 | 0.04 | 0.04 | 34 | 1018.4 |
| 20260502221738 | 66 | 310 | 0.0 | 0.0 | 0.00 | 0.04 | 0.04 | 34 | 1018.2 |
| 20260502221235 | 66 | 314 | 0.0 | 0.0 | 0.00 | 0.04 | 0.04 | 32 | 1018.0 |
| 20260502220731 | 66 | 318 | 2.0 | 3.0 | 0.00 | 0.04 | 0.04 | 33 | 1018.2 |
| 20260502220227 | 66 | 330 | 0.0 | 0.0 | 0.00 | 0.04 | 0.04 | 37 | 1017.8 |
| 20260502215724 | 66 | 319 | 0.0 | 0.0 | 0.00 | 0.04 | 0.04 | 34 | 1017.9 |
| 20260502215221 | 66 | 318 | 3.0 | 3.0 | 0.00 | 0.04 | 0.04 | 34 | 1018.2 |
| 20260502214719 | 67 | 306 | 0.0 | 0.0 | 0.00 | 0.04 | 0.04 | 34 | 1017.9 |
| 20260502214216 | 67 | 345 | 0.0 | 0.0 | 0.00 | 0.04 | 0.04 | 34 | 1018.0 |
| 20260502213713 | 67 | 303 | 0.0 | 0.0 | 0.00 | 0.04 | 0.04 | 34 | 1017.9 |
| 20260502213210 | 67 | 314 | 0.0 | 0.0 | 0.00 | 0.04 | 0.04 | 33 | 1017.5 |
| 20260502212709 | 67 | 323 | 0.0 | 0.0 | 0.00 | 0.04 | 0.04 | 35 | 1017.7 |
| 20260502212206 | 67 | 315 | 0.0 | 0.0 | 0.00 | 0.04 | 0.04 | 34 | 1017.7 |
| 20260502211702 | 67 | 304 | 0.0 | 0.0 | 0.00 | 0.04 | 0.04 | 33 | 1017.6 |
| 20260502211159 | 67 | 320 | 0.0 | 2.0 | 0.00 | 0.04 | 0.04 | 34 | 1017.7 |
| 20260502210656 | 67 | 303 | 1.0 | 3.0 | 0.00 | 0.04 | 0.04 | 34 | 1017.4 |
| 20260502210153 | 68 | 320 | 3.0 | 3.0 | 0.00 | 0.04 | 0.04 | 35 | 1017.4 |
| 20260502205650 | 68 | 320 | 1.0 | 2.0 | 0.00 | 0.04 | 0.04 | 35 | 1017.6 |
| 20260502205147 | 68 | 314 | 0.0 | 0.0 | 0.00 | 0.04 | 0.04 | 36 | 1017.5 |
| 20260502204644 | 68 | 305 | 2.0 | 3.0 | 0.00 | 0.04 | 0.04 | 33 | 1017.5 |
| 20260502204142 | 68 | 257 | 0.0 | 2.0 | 0.00 | 0.04 | 0.04 | 37 | 1017.2 |
| 20260502203638 | 68 | 312 | 0.0 | 0.0 | 0.00 | 0.04 | 0.04 | 38 | 1017.7 |
| 20260502203137 | 68 | 308 | 0.0 | 0.0 | 0.00 | 0.04 | 0.04 | 39 | 1017.3 |
| 20260502202631 | 68 | 315 | 0.0 | 0.0 | 0.00 | 0.04 | 0.04 | 36 | 1017.4 |
| 20260502202129 | 68 | 309 | 0.0 | 0.0 | 0.00 | 0.04 | 0.04 | 37 | 1017.4 |
| 20260502201626 | 68 | 306 | 0.0 | 0.0 | 0.00 | 0.04 | 0.04 | 37 | 1017.1 |
| 20260502201122 | 68 | 347 | 4.0 | 5.0 | 0.00 | 0.04 | 0.04 | 39 | 1017.4 |
| 20260502200618 | 69 | 324 | 3.0 | 3.0 | 0.00 | 0.04 | 0.04 | 36 | 1017.3 |
| 20260502200116 | 69 | 291 | 0.0 | 0.0 | 0.00 | 0.04 | 0.04 | 40 | 1017.4 |
| 20260502195614 | 69 | 303 | 0.0 | 0.0 | 0.00 | 0.04 | 0.04 | 36 | 1017.3 |
| 20260502195109 | 70 | 318 | 0.0 | 0.0 | 0.00 | 0.04 | 0.04 | 37 | 1017.3 |
| 20260502194606 | 70 | 289 | 0.0 | 0.0 | 0.00 | 0.04 | 0.04 | 40 | 1017.3 |
| 20260502194103 | 69 | 300 | 0.0 | 0.0 | 0.00 | 0.04 | 0.04 | 40 | 1017.5 |
| 20260502193600 | 69 | 230 | 1.0 | 3.0 | 0.00 | 0.04 | 0.04 | 41 | 1017.4 |
| 20260502193056 | 69 | 192 | 4.0 | 9.0 | 0.00 | 0.04 | 0.04 | 37 | 1017.3 |
| 20260502192552 | 69 | 298 | 0.0 | 0.0 | 0.00 | 0.04 | 0.04 | 41 | 1017.4 |
| 20260502192050 | 69 | 285 | 0.0 | 0.0 | 0.00 | 0.04 | 0.04 | 40 | 1017.5 |
| 20260502191546 | 69 | 308 | 0.0 | 0.0 | 0.00 | 0.04 | 0.04 | 44 | 1017.6 |
| 20260502191044 | 69 | 323 | 0.0 | 0.0 | 0.00 | 0.04 | 0.04 | 45 | 1017.5 |
| 20260502190542 | 69 | 326 | 0.0 | 0.0 | 0.00 | 0.04 | 0.04 | 44 | 1017.5 |
| 20260502190038 | 69 | 341 | 0.0 | 0.0 | 0.00 | 0.04 | 0.04 | 43 | 1017.4 |
| 20260502185533 | 69 | 310 | 2.0 | 2.0 | 0.00 | 0.04 | 0.04 | 42 | 1017.4 |
| 20260502185031 | 69 | 240 | 0.0 | 0.0 | 0.00 | 0.04 | 0.04 | 43 | 1017.4 |
| 20260502184526 | 69 | 311 | 0.0 | 0.0 | 0.00 | 0.04 | 0.04 | 49 | 1017.4 |
| 20260502184022 | 68 | 309 | 0.0 | 0.0 | 0.00 | 0.04 | 0.04 | 49 | 1017.4 |
| 20260502183519 | 68 | 312 | 0.0 | 0.0 | 0.00 | 0.04 | 0.04 | 50 | 1017.3 |
| 20260502183015 | 67 | 331 | 0.0 | 0.0 | 0.00 | 0.04 | 0.04 | 53 | 1017.3 |
| 20260502182510 | 67 | 321 | 0.0 | 0.0 | 0.00 | 0.04 | 0.04 | 54 | 1017.2 |
| 20260502182006 | 68 | 310 | 0.0 | 0.0 | 0.00 | 0.04 | 0.04 | 53 | 1017.3 |
| 20260502181504 | 69 | 316 | 0.0 | 0.0 | 0.00 | 0.04 | 0.04 | 51 | 1017.4 |
| 20260502181003 | 69 | 307 | 0.0 | 0.0 | 0.00 | 0.04 | 0.04 | 51 | 1017.4 |
| 20260502180459 | 69 | 301 | 0.0 | 0.0 | 0.00 | 0.04 | 0.04 | 50 | 1017.6 |
| 20260502170418 | 67 | 306 | 0.0 | 0.0 | 0.00 | 0.04 | 0.04 | 56 | 1017.9 |
| 20260502163902 | 65 | 307 | 0.0 | 0.0 | 0.00 | 0.04 | 0.04 | 59 | 1018.2 |
| 20260502163358 | 64 | 335 | 0.0 | 0.0 | 0.00 | 0.04 | 0.04 | 61 | 1018.1 |
| 20260502162856 | 64 | 311 | 0.0 | 0.0 | 0.00 | 0.04 | 0.04 | 59 | 1018.2 |
| 20260502162352 | 63 | 310 | 0.0 | 0.0 | 0.00 | 0.04 | 0.04 | 60 | 1018.2 |
| 20260502161849 | 63 | 302 | 0.0 | 0.0 | 0.00 | 0.04 | 0.04 | 62 | 1018.0 |
| 20260502161345 | 62 | 319 | 0.0 | 0.0 | 0.00 | 0.04 | 0.04 | 65 | 1018.2 |
| 20260502160843 | 62 | 313 | 0.0 | 0.0 | 0.00 | 0.04 | 0.04 | 67 | 1018.2 |
| 20260502160342 | 62 | 311 | 0.0 | 0.0 | 0.00 | 0.04 | 0.04 | 70 | 1018.3 |
| 20260502152322 | 59 | 296 | 0.0 | 0.0 | 0.00 | 0.04 | 0.04 | 73 | 1018.5 |
| 20260502151820 | 59 | 296 | 0.0 | 0.0 | 0.00 | 0.04 | 0.04 | 75 | 1018.3 |
| 20260502151316 | 58 | 295 | 0.0 | 0.0 | 0.00 | 0.04 | 0.04 | 75 | 1018.1 |
| 20260502150814 | 58 | 296 | 0.0 | 0.0 | 0.00 | 0.04 | 0.04 | 73 | 1018.2 |
| 20260502150310 | 58 | 295 | 1.0 | 2.0 | 0.00 | 0.04 | 0.04 | 75 | 1018.2 |
| 20260502130659 | 52 | 280 | 0.0 | 0.0 | 0.00 | 0.04 | 0.04 | 89 | 1017.3 |
| 20260502130157 | 52 | 280 | 0.0 | 0.0 | 0.00 | 0.04 | 0.04 | 89 | 1017.1 |
| 20260502123642 | 52 | 279 | 0.0 | 0.0 | 0.07 | 0.04 | 0.04 | 89 | 1017.6 |
| 20260502123139 | 53 | 279 | 0.0 | 0.0 | 0.00 | 0.03 | 0.03 | 89 | 1018.2 |
| 20260502122635 | 53 | 279 | 0.0 | 0.0 | 0.00 | 0.03 | 0.03 | 89 | 1018.5 |
| 20260502122132 | 53 | 278 | 0.0 | 0.0 | 0.00 | 0.03 | 0.03 | 89 | 1018.6 |
| 20260502121630 | 52 | 279 | 0.0 | 0.0 | 0.00 | 0.03 | 0.03 | 89 | 1018.0 |
| 20260502121127 | 52 | 279 | 0.0 | 0.0 | 0.00 | 0.03 | 0.03 | 89 | 1017.4 |
| 20260502120624 | 52 | 278 | 0.0 | 0.0 | 0.00 | 0.03 | 0.03 | 89 | 1017.3 |
| 20260502120121 | 53 | 278 | 0.0 | 0.0 | 0.00 | 0.03 | 0.03 | 89 | 1016.9 |
| 20260502115619 | 53 | 278 | 0.0 | 0.0 | 0.00 | 0.03 | 0.03 | 89 | 1017.1 |
| 20260502115114 | 53 | 278 | 0.0 | 0.0 | 0.00 | 0.03 | 0.03 | 89 | 1017.3 |
| 20260502114610 | 53 | 278 | 0.0 | 0.0 | 0.00 | 0.03 | 0.03 | 89 | 1017.5 |
| 20260502114108 | 53 | 278 | 0.0 | 0.0 | 0.00 | 0.03 | 0.03 | 89 | 1018.1 |
| 20260502113605 | 53 | 278 | 0.0 | 0.0 | 0.00 | 0.03 | 0.03 | 89 | 1017.7 |
| 20260502113104 | 53 | 278 | 0.0 | 0.0 | 0.00 | 0.03 | 0.03 | 89 | 1017.4 |
| 20260502112601 | 53 | 278 | 0.0 | 0.0 | 0.00 | 0.03 | 0.03 | 89 | 1017.1 |
| 20260502112058 | 53 | 278 | 0.0 | 0.0 | 0.00 | 0.03 | 0.03 | 89 | 1016.7 |
| 20260502111556 | 53 | 278 | 0.0 | 0.0 | 0.00 | 0.03 | 0.03 | 89 | 1017.1 |
| 20260502111053 | 54 | 278 | 0.0 | 0.0 | 0.00 | 0.03 | 0.03 | 89 | 1017.2 |
| 20260502110550 | 54 | 278 | 0.0 | 0.0 | 0.05 | 0.03 | 0.03 | 89 | 1017.1 |
| 20260502110048 | 54 | 277 | 0.0 | 0.0 | 0.05 | 0.03 | 0.03 | 89 | 1017.4 |
| 20260502105545 | 54 | 277 | 0.0 | 0.0 | 0.05 | 0.03 | 0.03 | 89 | 1017.7 |
| 20260502105043 | 54 | 277 | 0.0 | 0.0 | 0.00 | 0.02 | 0.02 | 89 | 1017.7 |
| 20260502104539 | 54 | 277 | 0.0 | 0.0 | 0.00 | 0.02 | 0.02 | 89 | 1017.7 |
| 20260502104037 | 54 | 277 | 0.0 | 0.0 | 0.00 | 0.02 | 0.02 | 89 | 1017.8 |
| 20260502103535 | 54 | 276 | 0.0 | 0.0 | 0.00 | 0.02 | 0.02 | 89 | 1017.9 |
| 20260502103032 | 54 | 276 | 0.0 | 0.0 | 0.00 | 0.02 | 0.02 | 89 | 1018.4 |
| 20260502102528 | 55 | 278 | 0.0 | 0.0 | 0.00 | 0.02 | 0.02 | 89 | 1018.2 |
| 20260502102026 | 55 | 281 | 0.0 | 0.0 | 0.00 | 0.02 | 0.02 | 89 | 1017.7 |
| 20260502101523 | 55 | 281 | 0.0 | 0.0 | 0.00 | 0.02 | 0.02 | 89 | 1017.3 |
| 20260502101022 | 55 | 281 | 0.0 | 0.0 | 0.00 | 0.02 | 0.02 | 89 | 1016.9 |
| 20260502100520 | 55 | 281 | 0.0 | 0.0 | 0.00 | 0.02 | 0.02 | 89 | 1017.1 |
| 20260502091454 | 56 | 281 | 0.0 | 0.0 | 0.00 | 0.02 | 0.02 | 89 | 1016.5 |
| 20260502090952 | 56 | 281 | 0.0 | 0.0 | 0.00 | 0.02 | 0.02 | 89 | 1016.7 |
| 20260502090448 | 56 | 281 | 0.0 | 0.0 | 0.00 | 0.02 | 0.02 | 89 | 1017.0 |
| 20260502071343 | 58 | 281 | 0.0 | 0.0 | 0.05 | 0.01 | 0.01 | 88 | 1017.1 |
| 20260502070841 | 58 | 281 | 0.0 | 0.0 | 0.00 | 0.00 | 0.00 | 88 | 1017.3 |
| 20260502070339 | 58 | 281 | 0.0 | 0.0 | 0.00 | 0.00 | 0.00 | 88 | 1017.2 |
| 20260502065837 | 58 | 281 | 0.0 | 0.0 | 0.00 | 0.00 | 0.00 | 88 | 1017.3 |
| 20260502065335 | 58 | 278 | 0.0 | 0.0 | 0.00 | 0.00 | 0.00 | 88 | 1017.4 |
| 20260502064833 | 58 | 278 | 0.0 | 0.0 | 0.00 | 0.00 | 0.00 | 88 | 1017.9 |
| 20260502064331 | 58 | 278 | 0.0 | 0.0 | 0.00 | 0.00 | 0.00 | 88 | 1017.9 |
| 20260502063827 | 58 | 278 | 0.0 | 0.0 | 0.00 | 0.00 | 0.00 | 88 | 1018.0 |
| 20260502063325 | 58 | 278 | 0.0 | 0.0 | 0.00 | 0.00 | 0.00 | 88 | 1017.9 |
| 20260502062822 | 58 | 278 | 0.0 | 0.0 | 0.00 | 0.00 | 0.00 | 88 | 1017.9 |
| 20260502062320 | 58 | 278 | 0.0 | 0.0 | 0.00 | 0.00 | 0.00 | 88 | 1018.0 |
| 20260502061819 | 58 | 278 | 0.0 | 0.0 | 0.00 | 0.00 | 0.00 | 88 | 1017.8 |
| 20260502061316 | 58 | 278 | 0.0 | 0.0 | 0.00 | 0.00 | 0.00 | 88 | 1017.9 |
| 20260502060811 | 58 | 278 | 0.0 | 0.0 | 0.00 | 0.00 | 0.00 | 88 | 1018.2 |
| 20260502060307 | 58 | 278 | 0.0 | 0.0 | 0.00 | 0.00 | 0.00 | 87 | 1018.3 |
| 20260502055805 | 58 | 278 | 0.0 | 0.0 | 0.00 | 0.00 | 0.00 | 87 | 1018.0 |
| 20260502055305 | 58 | 278 | 0.0 | 0.0 | 0.00 | 0.00 | 0.00 | 87 | 1018.1 |
| 20260502054802 | 58 | 278 | 0.0 | 0.0 | 0.00 | 0.00 | 0.00 | 86 | 1017.9 |
| 20260502054259 | 59 | 278 | 0.0 | 0.0 | 0.00 | 0.00 | 0.00 | 86 | 1017.9 |
| 20260502053756 | 58 | 278 | 0.0 | 0.0 | 0.00 | 0.00 | 0.00 | 86 | 1018.0 |
| 20260502053253 | 59 | 278 | 0.0 | 0.0 | 0.00 | 0.00 | 0.00 | 86 | 1018.1 |
| 20260502052751 | 59 | 279 | 0.0 | 0.0 | 0.00 | 0.00 | 0.00 | 86 | 1018.1 |
| 20260502052249 | 59 | 279 | 0.0 | 0.0 | 0.00 | 0.00 | 0.00 | 86 | 1018.4 |
| 20260502051746 | 59 | 279 | 0.0 | 0.0 | 0.00 | 0.00 | 0.00 | 85 | 1018.0 |
| 20260502051245 | 59 | 279 | 0.0 | 0.0 | 0.00 | 0.00 | 0.00 | 85 | 1018.4 |
| 20260502050741 | 59 | 279 | 0.0 | 0.0 | 0.00 | 0.00 | 0.00 | 85 | 1018.3 |
| 20260502050237 | 59 | 279 | 0.0 | 0.0 | 0.00 | 0.00 | 0.00 | 85 | 1017.8 |
| 20260502045734 | 59 | 279 | 0.0 | 0.0 | 0.00 | 0.00 | 0.00 | 85 | 1017.9 |
| 20260502045231 | 59 | 279 | 0.0 | 0.0 | 0.00 | 0.00 | 0.00 | 85 | 1017.9 |
| 20260502044728 | 59 | 279 | 0.0 | 0.0 | 0.00 | 0.00 | 0.00 | 85 | 1018.3 |
| 20260502044224 | 59 | 279 | 0.0 | 0.0 | 0.00 | 0.00 | 0.00 | 85 | 1018.2 |
| 20260502043722 | 59 | 279 | 0.0 | 0.0 | 0.00 | 0.00 | 0.00 | 85 | 1018.2 |
| 20260502043219 | 59 | 279 | 0.0 | 0.0 | 0.00 | 0.00 | 0.00 | 85 | 1018.0 |
| 20260502042718 | 59 | 279 | 0.0 | 0.0 | 0.00 | 0.00 | 0.00 | 85 | 1018.0 |
| 20260502042216 | 59 | 279 | 0.0 | 0.0 | 0.00 | 0.00 | 0.00 | 85 | 1018.0 |
| 20260502041713 | 59 | 280 | 0.0 | 0.0 | 0.00 | 0.00 | 0.00 | 85 | 1018.1 |
| 20260502041210 | 59 | 280 | 0.0 | 0.0 | 0.00 | 0.00 | 0.00 | 85 | 1018.2 |
| 20260502040707 | 59 | 280 | 0.0 | 0.0 | 0.00 | 0.00 | 0.00 | 85 | 1018.4 |
| 20260502040204 | 59 | 280 | 0.0 | 0.0 | 0.00 | 0.00 | 0.00 | 85 | 1018.3 |
| 20260502035700 | 59 | 280 | 0.0 | 0.0 | 0.00 | 0.00 | 0.00 | 84 | 1018.5 |
| 20260502035157 | 59 | 280 | 0.0 | 0.0 | 0.00 | 0.00 | 0.00 | 84 | 1018.7 |
| 20260502034655 | 59 | 280 | 0.0 | 0.0 | 0.00 | 0.00 | 0.00 | 84 | 1018.5 |
| 20260502034153 | 59 | 280 | 0.0 | 0.0 | 0.00 | 0.00 | 0.00 | 84 | 1018.4 |
| 20260502033651 | 59 | 280 | 0.0 | 0.0 | 0.00 | 0.00 | 0.00 | 84 | 1018.8 |
| 20260502033148 | 59 | 280 | 0.0 | 0.0 | 0.00 | 0.00 | 0.00 | 84 | 1018.8 |
| 20260502032644 | 59 | 280 | 0.0 | 0.0 | 0.00 | 0.00 | 0.00 | 84 | 1018.9 |
| 20260502032141 | 60 | 280 | 0.0 | 0.0 | 0.00 | 0.00 | 0.00 | 84 | 1018.8 |
| 20260502031639 | 60 | 280 | 0.0 | 0.0 | 0.00 | 0.00 | 0.00 | 83 | 1018.8 |
| 20260502031136 | 60 | 280 | 0.0 | 0.0 | 0.00 | 0.00 | 0.00 | 83 | 1018.9 |
| 20260502030635 | 60 | 280 | 0.0 | 0.0 | 0.00 | 0.00 | 0.00 | 83 | 1018.9 |
| 20260502030133 | 60 | 280 | 0.0 | 0.0 | 0.00 | 0.00 | 0.00 | 83 | 1018.9 |
| 20260502025629 | 60 | 280 | 0.0 | 0.0 | 0.00 | 0.00 | 0.00 | 83 | 1018.7 |
| 20260502025128 | 60 | 280 | 0.0 | 0.0 | 0.00 | 0.00 | 0.00 | 83 | 1018.6 |
| 20260502024625 | 60 | 280 | 0.0 | 0.0 | 0.00 | 0.00 | 0.00 | 83 | 1018.6 |
| 20260502024123 | 60 | 280 | 0.0 | 0.0 | 0.00 | 0.00 | 0.00 | 83 | 1018.7 |
| 20260502023621 | 60 | 280 | 0.0 | 0.0 | 0.00 | 0.00 | 0.00 | 82 | 1018.9 |
| 20260502023118 | 60 | 280 | 0.0 | 0.0 | 0.00 | 0.00 | 0.00 | 82 | 1018.8 |
| 20260502022615 | 60 | 280 | 0.0 | 0.0 | 0.00 | 0.00 | 0.00 | 82 | 1018.9 |
| 20260502022112 | 60 | 280 | 0.0 | 0.0 | 0.00 | 0.00 | 0.00 | 82 | 1018.7 |